Wind_Speed
23 23 24 26 26 26 27 26 26 26 27 28 30 32 34 35 39 41 42 41 38 36 36 36 37 38 39 38 38 38 37 35 33 32 32 31 31 31 33 34 36 37 39
28 27 26 27 28 28 29 29 29 29 30 32 34 35 37 39 42 43 41 38 35 33 34 34 33 34 35 36 36 35 34 33 32 31 31 32 32 32 35 37 39 41 43
32 32 31 30 29 29 30 31 31 33 34 35 36 38 40 41 42 42 41 39 37 32 31 31 30 29 31 33 32 32 32 31 30 31 32 35 37 39 39 41 44 46 48
37 36 34 32 31 31 32 33 34 36 37 38 38 40 41 43 43 44 42 41 35 32 30 28 27 25 27 28 29 29 29 30 32 33 36 38 41 44 46 46 48 51 54
40 38 36 34 33 33 33 35 36 37 38 39 40 41 41 42 44 42 40 39 34 32 29 28 27 26 27 27 28 30 32 34 35 37 40 42 45 47 49 53 56 58 59
41 38 36 34 33 33 34 35 36 38 39 40 40 40 40 41 41 39 39 37 35 34 32 30 29 29 29 31 33 35 37 38 40 42 45 47 49 51 54 57 59 61 63
37 35 34 32 32 32 33 34 35 36 37 38 38 38 38 38 38 38 37 36 35 34 33 32 32 33 34 35 37 38 40 43 45 47 49 51 54 56 59 61 62 63 64
31 31 30 29 29 30 31 33 34 35 36 37 37 37 37 37 37 37 37 36 36 36 35 35 35 36 38 39 41 43 45 48 50 51 53 56 57 59 61 63 64 64 64
27 27 27 27 27 29 30 31 33 34 36 36 36 36 37 37 37 38 38 39 39 39 39 39 40 41 42 44 46 48 50 51 53 55 57 59 60 61 62 63 64 64 63
25 25 26 27 28 29 30 31 33 34 35 36 36 37 38 39 39 40 41 42 43 43 44 44 45 46 46 48 49 51 53 54 56 58 59 60 61 62 62 62 62 62 62
25 26 27 29 30 31 32 33 34 35 36 37 38 39 40 41 42 44 45 46 46 47 47 48 48 48 49 50 52 53 54 56 57 58 59 60 60 61 61 61 61 62 62
26 28 29 31 32 33 34 36 37 38 39 40 41 42 43 44 46 47 49 50 50 50 49 49 50 50 51 52 53 54 55 57 57 58 58 58 59 58 59 59 60 61 62
30 32 33 34 36 37 39 40 41 42 43 44 44 45 46 48 49 50 51 52 51 51 50 50 51 51 52 53 54 55 56 56 56 56 56 56 56 57 57 58 59 60 61
35 36 37 39 40 41 43 44 45 46 47 47 48 48 49 50 51 52 53 53 53 52 52 52 52 52 53 53 54 54 54 55 55 54 54 54 54 55 57 57 58 58 57
40 41 41 42 43 44 45 47 47 48 48 48 49 49 50 51 52 53 53 53 54 54 53 53 53 53 53 53 53 53 53 53 53 52 52 53 54 55 55 55 54 53 49
42 42 43 44 44 44 44 45 45 45 45 46 47 49 51 52 53 53 53 53 54 53 53 53 53 53 53 52 52 52 52 51 51 51 52 52 52 52 52 50 48 44 39
41 41 42 42 42 43 44 43 44 44 45 46 47 49 51 52 53 53 53 53 52 52 52 52 52 52 52 52 51 51 50 50 49 49 50 50 49 48 45 42 39 34 30
38 38 38 39 40 41 41 42 43 44 46 47 49 50 50 51 51 51 51 51 51 51 51 51 51 51 50 50 50 49 48 48 48 47 46 44 42 39 36 33 29 27 25
36 36 36 37 38 40 41 42 44 46 47 48 48 49 49 49 49 49 49 49 49 49 49 49 49 49 48 48 47 47 47 45 44 42 40 37 33 30 26 23 22 21 22
34 36 37 39 40 41 43 44 45 45 46 46 47 47 48 48 48 47 47 47 47 47 47 47 47 47 46 45 45 44 42 40 38 36 33 28 24 21 18 17 17 19 20
34 36 38 39 40 40 41 42 43 44 44 45 45 45 45 45 45 45 44 44 45 45 45 44 44 43 42 41 39 37 35 33 31 28 25 21 16 13 12 14 15 17 19
33 35 36 37 38 39 40 40 41 41 42 42 42 42 41 41 41 41 41 41 41 41 41 40 39 38 36 34 32 29 27 25 23 21 17 13 10 9 11 13 14 16 17
33 34 35 35 36 37 37 37 37 38 38 38 38 38 38 38 38 38 38 39 38 38 37 36 34 32 29 27 24 22 20 18 16 13 9 7 7 8 10 11 13 14 15
31 31 32 32 32 33 33 33 33 34 34 34 35 35 36 36 36 35 35 34 33 32 30 29 27 26 24 21 19 16 14 11 8 5 4 3 5 6 8 9 11 12 14
26 26 27 27 27 28 28 29 30 31 32 32 33 33 33 32 31 31 30 29 28 26 24 23 21 19 17 14 12 10 7 4 2 1 0 2 4 5 7 9 11 13 15
21 22 22 23 24 25 26 28 28 29 29 29 28 28 27 27 27 26 25 23 21 19 17 16 14 13 11 8 6 3 1 2 3 3 3 4 5 6 8 10 11 13 16
Wind_Direction
264 269 272 273 276 279 280 282 282 284 288 291 294 295 297 299 299 294 296 296 293 291 285 280 276 271 266 264 263 263 263 264 266 271 275 280 282 284 285 286 288 288 287
264 269 273 274 274 275 277 279 280 282 285 288 290 293 295 297 299 298 300 302 302 298 292 285 281 277 270 267 264 265 266 268 272 279 285 287 288 290 291 292 291 291 289
264 269 273 273 272 272 274 276 278 279 282 285 288 292 294 298 300 302 305 309 311 306 298 291 286 280 275 272 271 270 273 278 281 287 291 293 294 295 294 293 292 292 291
268 270 271 270 270 270 271 273 275 277 280 284 287 290 292 295 300 302 306 315 322 318 307 297 291 286 285 279 281 285 286 289 292 294 295 295 296 296 296 294 293 292 292
268 270 269 268 268 268 269 271 272 274 278 281 284 287 289 293 296 300 304 313 318 318 313 307 300 294 294 291 295 293 294 297 296 294 293 293 293 294 294 294 295 294 293
267 268 267 267 266 266 267 267 268 271 274 278 281 284 286 290 294 298 303 308 312 312 311 306 302 298 298 297 296 295 296 295 294 294 293 293 293 293 293 292 292 293 293
265 267 267 266 264 264 264 265 267 270 273 275 278 281 284 288 292 297 301 305 306 307 305 303 301 298 296 296 294 292 293 293 293 293 293 292 292 292 292 292 292 293 292
263 264 264 263 263 263 263 264 266 268 271 274 277 280 283 287 292 296 300 302 304 304 303 300 298 295 293 294 293 291 292 292 291 291 291 291 291 291 291 292 292 293 293
261 261 262 262 262 262 263 264 266 268 271 274 277 280 285 289 293 296 299 302 303 303 301 299 297 295 293 292 291 290 290 290 289 290 290 291 291 292 293 293 294 294 294
260 259 260 261 262 263 264 266 268 270 272 275 279 283 287 291 295 298 300 302 302 301 300 298 297 295 293 291 290 290 290 289 289 290 291 291 292 293 294 294 294 294 295
260 260 261 263 265 266 267 269 270 272 275 278 281 285 289 293 296 298 300 301 301 300 298 297 296 293 292 291 290 289 289 289 290 291 291 292 293 294 295 296 295 296 296
261 262 263 265 267 268 270 271 273 275 278 280 283 286 289 292 295 297 298 298 299 298 296 295 293 292 291 290 289 289 290 290 291 292 293 294 295 295 296 296 297 297 298
262 264 266 268 270 272 273 274 276 277 279 281 284 286 289 292 294 295 296 296 296 296 294 294 292 291 290 289 289 290 290 291 292 293 294 295 296 296 297 298 299 299 300
265 266 268 271 273 274 275 276 277 278 279 281 283 286 289 291 292 293 294 294 294 294 293 292 291 290 290 290 290 290 291 292 293 294 295 296 297 298 299 300 301 302 302
266 267 269 272 274 276 277 277 278 279 279 281 283 286 288 290 291 292 292 292 292 292 291 291 290 290 291 291 291 292 293 294 295 296 297 298 299 301 302 303 303 304 304
268 269 270 273 275 277 278 280 280 281 282 283 284 286 287 288 289 290 290 290 290 290 290 290 290 290 291 292 292 293 294 295 296 298 299 300 302 303 305 305 305 305 306
267 270 272 274 276 278 280 281 283 283 284 285 286 286 287 288 288 289 289 289 289 289 290 290 290 291 292 293 294 295 296 296 298 300 302 303 304 306 306 306 306 308 310
270 272 275 277 278 281 284 285 284 284 285 286 286 286 287 288 289 289 289 289 289 289 290 290 291 292 293 294 294 295 296 298 299 301 302 304 306 307 306 307 309 311 314
273 275 277 279 280 282 284 284 285 286 288 288 288 288 288 289 289 289 289 290 290 290 291 291 292 293 294 295 295 296 297 299 300 302 303 305 306 306 307 308 311 314 317
274 276 277 279 281 284 285 286 288 288 289 289 289 290 290 290 290 290 290 291 291 291 292 292 293 294 294 295 296 297 298 299 300 302 303 305 306 307 308 312 317 320 322
275 277 280 283 284 286 287 288 289 290 290 291 291 291 291 291 291 291 291 292 293 293 293 293 294 294 295 295 296 296 297 298 299 301 304 307 308 310 315 321 324 326 328
279 281 283 285 286 288 289 291 291 291 292 292 292 292 292 293 293 293 293 294 294 294 294 295 295 295 296 296 296 296 295 296 298 300 303 307 312 319 326 330 332 335 338
283 285 287 289 290 291 292 293 294 294 295 295 295 295 295 295 295 295 296 296 296 296 296 296 296 296 296 296 295 294 294 294 295 297 301 308 320 330 335 339 342 348 353
287 289 290 291 293 294 295 296 296 297 297 298 298 298 298 298 298 298 298 298 298 298 297 297 296 296 296 295 294 293 292 291 290 288 294 313 332 344 348 353 1 7 9
290 292 293 294 296 298 299 300 301 301 301 302 302 302 302 302 302 302 301 301 300 299 298 297 297 298 297 295 294 293 289 280 249 215 218 6 7 10 13 18 22 23 23
295 296 298 299 301 303 305 305 306 307 307 307 307 308 307 307 307 306 305 304 304 302 301 300 301 300 299 297 295 286 195 134 126 111 86 55 40 36 35 36 35 35 32
Height
5875 5875 5875 5876 5876 5875 5874 5873 5871 5870 5868 5866 5863 5861 5859 5856 5852 5847 5844 5841 5838 5835 5832 5829 5827 5825 5825 5824 5824 5824 5824 5824 5823 5822 5822 5821 5819 5818 5816 5814 5812 5810 5807
5869 5870 5870 5870 5871 5870 5870 5868 5867 5865 5863 5861 5858 5856 5853 5849 5845 5841 5837 5834 5831 5827 5824 5822 5820 5818 5817 5817 5817 5816 5816 5815 5815 5814 5813 5812 5811 5809 5806 5804 5801 5799 5796
5863 5864 5864 5864 5864 5864 5864 5863 5861 5859 5857 5855 5853 5850 5846 5843 5839 5836 5832 5829 5824 5821 5817 5815 5813 5811 5811 5810 5810 5809 5809 5808 5807 5805 5804 5802 5800 5798 5796 5793 5790 5787 5783
5855 5856 5857 5857 5858 5858 5857 5857 5856 5854 5851 5849 5846 5843 5840 5837 5834 5830 5827 5823 5819 5816 5813 5811 5809 5807 5805 5804 5804 5802 5801 5800 5799 5797 5794 5792 5789 5786 5782 5780 5777 5773 5769
5847 5848 5849 5850 5850 5851 5850 5850 5848 5847 5845 5842 5840 5837 5834 5831 5827 5824 5821 5818 5815 5813 5810 5808 5805 5802 5800 5799 5797 5796 5794 5792 5790 5788 5785 5782 5778 5774 5770 5766 5762 5757 5752
5837 5839 5840 5842 5842 5842 5842 5842 5840 5839 5837 5835 5832 5830 5827 5824 5821 5818 5815 5812 5809 5807 5804 5802 5799 5797 5795 5793 5791 5788 5786 5783 5780 5777 5774 5770 5766 5762 5757 5752 5747 5742 5736
5829 5830 5832 5833 5833 5834 5834 5833 5832 5830 5828 5826 5824 5822 5819 5816 5814 5811 5808 5805 5803 5800 5797 5795 5792 5790 5787 5784 5782 5779 5776 5773 5769 5765 5761 5757 5753 5748 5743 5737 5732 5726 5721
5821 5822 5823 5824 5825 5825 5825 5824 5823 5821 5819 5818 5815 5813 5811 5808 5805 5802 5799 5797 5794 5792 5789 5786 5784 5781 5778 5775 5772 5768 5765 5761 5757 5752 5748 5743 5738 5733 5727 5721 5715 5710 5704
5814 5815 5815 5816 5816 5816 5816 5815 5814 5813 5811 5809 5806 5804 5802 5799 5796 5793 5790 5788 5785 5782 5779 5777 5774 5771 5768 5764 5761 5757 5752 5748 5743 5738 5733 5728 5722 5717 5711 5704 5698 5692 5687
5807 5807 5808 5808 5808 5808 5808 5807 5805 5804 5802 5800 5797 5795 5792 5789 5786 5783 5780 5777 5774 5771 5768 5765 5762 5758 5755 5751 5747 5743 5738 5733 5728 5723 5718 5712 5706 5701 5694 5688 5681 5674 5668
5800 5800 5800 5800 5800 5799 5799 5798 5796 5794 5792 5790 5787 5785 5782 5779 5776 5772 5769 5766 5762 5759 5756 5752 5749 5745 5741 5737 5733 5728 5724 5719 5714 5708 5703 5697 5691 5685 5678 5672 5665 5658 5651
5792 5792 5792 5791 5791 5790 5789 5788 5787 5785 5783 5780 5777 5774 5771 5768 5765 5761 5757 5754 5750 5746 5743 5739 5735 5731 5727 5723 5719 5714 5709 5704 5699 5693 5688 5682 5676 5670 5664 5657 5650 5643 5635
5784 5783 5783 5782 5782 5781 5780 5778 5777 5775 5772 5770 5767 5764 5760 5757 5753 5749 5745 5741 5737 5733 5729 5725 5721 5717 5713 5708 5704 5699 5695 5690 5684 5679 5673 5667 5662 5656 5649 5642 5635 5627 5619
5775 5774 5774 5773 5772 5770 5769 5767 5766 5763 5761 5758 5755 5752 5749 5745 5741 5737 5732 5728 5724 5720 5715 5711 5707 5702 5698 5694 5689 5685 5680 5675 5670 5665 5659 5654 5648 5642 5635 5627 5620 5612 5604
5765 5764 5763 5762 5761 5759 5757 5755 5753 5751 5749 5746 5743 5740 5736 5732 5728 5723 5719 5714 5710 5705 5701 5697 5692 5688 5684 5679 5675 5670 5666 5661 5656 5651 5646 5641 5635 5628 5620 5613 5606 5598 5591
5754 5753 5752 5750 5749 5747 5745 5743 5741 5738 5735 5733 5730 5726 5722 5718 5714 5710 5705 5701 5696 5691 5687 5682 5678 5674 5670 5665 5661 5657 5653 5648 5643 5638 5632 5627 5621 5614 5607 5600 5593 5587 5581
5743 5742 5740 5738 5737 5735 5733 5731 5728 5725 5722 5719 5716 5712 5708 5704 5700 5695 5691 5686 5682 5677 5673 5668 5664 5660 5656 5652 5648 5643 5640 5635 5631 5625 5620 5614 5608 5602 5596 5589 5583 5578 5573
5732 5730 5729 5727 5725 5723 5720 5718 5715 5712 5709 5706 5702 5698 5694 5690 5686 5681 5677 5672 5668 5663 5659 5655 5651 5647 5643 5639 5635 5631 5627 5623 5619 5614 5609 5603 5597 5592 5587 5581 5576 5571 5567
5722 5720 5718 5716 5714 5711 5709 5706 5703 5699 5696 5692 5688 5684 5680 5676 5672 5668 5664 5659 5655 5650 5646 5642 5638 5634 5631 5627 5623 5619 5615 5611 5607 5603 5599 5594 5589 5585 5580 5576 5571 5567 5563
5713 5711 5709 5706 5704 5701 5698 5694 5691 5687 5684 5680 5676 5671 5667 5663 5659 5654 5650 5646 5642 5637 5633 5629 5625 5622 5618 5615 5611 5607 5603 5600 5597 5593 5590 5586 5583 5579 5575 5572 5568 5565 5560
5704 5702 5699 5697 5694 5690 5687 5683 5679 5676 5672 5668 5663 5659 5655 5650 5646 5642 5638 5633 5629 5625 5621 5617 5614 5610 5607 5604 5601 5597 5594 5591 5588 5585 5582 5580 5577 5575 5572 5569 5566 5562 5558
5695 5693 5690 5687 5684 5680 5677 5673 5669 5665 5660 5656 5652 5647 5643 5639 5634 5630 5626 5622 5618 5614 5610 5606 5603 5600 5596 5593 5591 5588 5585 5583 5581 5579 5577 5575 5574 5572 5570 5568 5564 5561 5556
5687 5684 5681 5678 5675 5671 5667 5663 5659 5654 5650 5646 5641 5637 5632 5628 5624 5619 5615 5611 5607 5603 5599 5596 5593 5590 5587 5585 5583 5581 5579 5577 5576 5575 5574 5573 5572 5571 5569 5566 5563 5560 5555
5679 5676 5673 5670 5666 5662 5658 5654 5650 5645 5641 5637 5632 5627 5623 5618 5614 5609 5605 5601 5597 5593 5590 5587 5584 5582 5580 5577 5576 5575 5574 5573 5572 5572 5572 5572 5571 5570 5568 5566 5563 5559 5555
5672 5669 5666 5662 5659 5655 5651 5647 5642 5637 5633 5628 5623 5619 5614 5609 5605 5601 5597 5593 5589 5586 5583 5580 5577 5575 5574 5572 5571 5570 5570 5570 5571 5571 5571 5571 5571 5570 5568 5566 5563 5560 5556
5666 5663 5660 5657 5653 5649 5644 5640 5635 5630 5625 5620 5616 5611 5607 5602 5598 5594 5590 5585 5583 5580 5577 5575 5573 5571 5570 5569 5568 5568 5569 5570 5570 5571 5571 5571 5571 5569 5568 5566 5564 5561 5558